Time,TemperatureF,DewpointF,PressureIn,WindDirection,WindDirectionDegrees,WindSpeedMPH,WindSpeedGustMPH,Humidity,HourlyPrecipIn,Conditions,Clouds,dailyrainin,SoftwareType,DateUTC
2013-04-22 00:02:00,44.4,35.3,30.20,ESE,112,2.0,8.7,70,0.00,,,0.00,WUHU21623XXSP,2013-04-22 05:02:00,
2013-04-22 00:07:00,44.4,35.3,30.20,SE,135,10.3,10.7,70,0.00,,,0.00,WUHU21623XXSP,2013-04-22 05:07:00,
2013-04-22 00:12:00,44.2,35.1,30.20,South,180,4.5,10.7,70,0.00,,,0.00,WUHU21623XXSP,2013-04-22 05:12:00,
2013-04-22 00:17:00,44.2,35.1,30.20,South,180,2.9,5.1,70,0.00,,,0.00,WUHU21623XXSP,2013-04-22 05:17:00,
2013-04-22 00:22:00,44.1,34.9,30.20,SSW,202,8.9,9.2,70,0.00,,,0.00,WUHU21623XXSP,2013-04-22 05:22:00,
2013-04-22 00:27:00,43.9,35.1,30.20,SSW,202,10.1,10.1,71,0.00,,,0.00,WUHU21623XXSP,2013-04-22 05:27:00,
2013-04-22 00:32:00,44.1,35.3,30.20,SSE,157,7.4,10.1,71,0.00,,,0.00,WUHU21623XXSP,2013-04-22 05:32:00,
2013-04-22 00:37:00,44.1,35.3,30.19,SSE,157,1.8,11.4,71,0.00,,,0.00,WUHU21623XXSP,2013-04-22 05:37:00,
2013-04-22 00:42:00,44.1,34.9,30.19,SSE,157,4.7,11.4,71,0.00,,,0.00,WUHU21623XXSP,2013-04-22 05:42:00,
2013-04-22 00:47:00,43.9,35.1,30.19,SE,135,1.6,8.1,71,0.00,,,0.00,WUHU21623XXSP,2013-04-22 05:47:00,
2013-04-22 00:52:00,43.9,35.1,30.20,SSE,157,6.0,8.1,71,0.00,,,0.00,WUHU21623XXSP,2013-04-22 05:52:00,
2013-04-22 00:57:00,43.9,35.1,30.19,SE,135,5.1,7.6,71,0.00,,,0.00,WUHU21623XXSP,2013-04-22 05:57:00,
2013-04-22 01:02:00,43.9,34.8,30.19,South,180,10.1,10.1,70,0.00,,,0.00,WUHU21623XXSP,2013-04-22 06:02:00,
2013-04-22 01:07:00,43.9,34.8,30.19,South,180,15.2,15.2,70,0.00,,,0.00,WUHU21623XXSP,2013-04-22 06:07:00,
2013-04-22 01:12:00,43.9,34.8,30.19,SSW,202,5.8,15.2,70,0.00,,,0.00,WUHU21623XXSP,2013-04-22 06:12:00,
2013-04-22 01:17:00,43.7,34.6,30.19,SSW,202,10.5,10.5,70,0.00,,,0.00,WUHU21623XXSP,2013-04-22 06:17:00,
2013-04-22 01:22:00,43.7,34.9,30.19,South,180,7.4,10.5,71,0.00,,,0.00,WUHU21623XXSP,2013-04-22 06:22:00,
2013-04-22 01:27:00,43.7,34.6,30.19,SW,225,11.2,11.2,70,0.00,,,0.00,WUHU21623XXSP,2013-04-22 06:27:00,
2013-04-22 01:32:00,43.7,34.6,30.19,WSW,247,6.0,11.2,70,0.00,,,0.00,WUHU21623XXSP,2013-04-22 06:32:00,
2013-04-22 01:37:00,43.5,34.8,30.19,SSW,202,5.8,7.8,71,0.00,,,0.00,WUHU21623XXSP,2013-04-22 06:37:00,
2013-04-22 01:42:00,43.3,34.6,30.18,South,180,5.8,7.8,71,0.00,,,0.00,WUHU21623XXSP,2013-04-22 06:42:00,
2013-04-22 01:47:00,43.3,34.6,30.19,SSW,202,4.5,5.8,71,0.00,,,0.00,WUHU21623XXSP,2013-04-22 06:47:00,
2013-04-22 01:52:00,43.3,34.6,30.18,SE,135,4.0,6.9,71,0.00,,,0.00,WUHU21623XXSP,2013-04-22 06:52:00,
2013-04-22 01:57:00,43.2,34.6,30.18,SSE,157,3.1,6.9,71,0.00,,,0.00,WUHU21623XXSP,2013-04-22 06:57:00,
2013-04-22 02:02:00,43.2,34.4,30.18,South,180,2.2,3.1,71,0.00,,,0.00,WUHU21623XXSP,2013-04-22 07:02:00,
2013-04-22 02:07:00,43.3,34.6,30.18,SSW,202,6.3,6.3,71,0.00,,,0.00,WUHU21623XXSP,2013-04-22 07:07:00,
2013-04-22 02:12:00,43.3,34.6,30.18,SW,225,6.3,6.3,71,0.00,,,0.00,WUHU21623XXSP,2013-04-22 07:12:00,
2013-04-22 02:17:00,43.3,34.6,30.18,SW,225,4.7,6.3,71,0.00,,,0.00,WUHU21623XXSP,2013-04-22 07:17:00,
2013-04-22 02:22:00,43.3,34.6,30.18,SSW,202,4.7,8.9,71,0.00,,,0.00,WUHU21623XXSP,2013-04-22 07:22:00,
2013-04-22 02:27:00,43.3,34.6,30.18,SSE,157,5.6,8.9,71,0.00,,,0.00,WUHU21623XXSP,2013-04-22 07:27:00,
2013-04-22 02:32:00,43.3,34.6,30.18,SSE,157,5.6,5.6,71,0.00,,,0.00,WUHU21623XXSP,2013-04-22 07:32:00,
2013-04-22 02:37:00,43.2,34.4,30.19,SSE,157,6.9,6.9,71,0.00,,,0.00,WUHU21623XXSP,2013-04-22 07:37:00,
2013-04-22 02:42:00,43.3,34.6,30.18,South,180,7.6,7.6,71,0.00,,,0.00,WUHU21623XXSP,2013-04-22 07:42:00,
2013-04-22 02:47:00,43.2,34.4,30.18,SSW,202,2.9,7.6,71,0.00,,,0.00,WUHU21623XXSP,2013-04-22 07:47:00,
2013-04-22 02:52:00,43.3,34.6,30.18,ENE,67,2.5,7.6,71,0.00,,,0.00,WUHU21623XXSP,2013-04-22 07:52:00,
2013-04-22 02:57:00,43.2,34.4,30.18,South,180,5.6,7.6,71,0.00,,,0.00,WUHU21623XXSP,2013-04-22 07:57:00,
2013-04-22 03:02:00,43.2,34.4,30.17,SSE,157,9.2,9.2,71,0.00,,,0.00,WUHU21623XXSP,2013-04-22 08:02:00,
2013-04-22 03:07:00,43.3,34.6,30.16,East,90,6.3,9.2,71,0.00,,,0.00,WUHU21623XXSP,2013-04-22 08:07:00,
2013-04-22 03:12:00,43.3,34.6,30.17,East,90,6.3,6.3,70,0.00,,,0.00,WUHU21623XXSP,2013-04-22 08:12:00,
2013-04-22 03:17:00,43.3,34.3,30.17,WSW,247,2.7,6.3,70,0.00,,,0.00,WUHU21623XXSP,2013-04-22 08:17:00,
2013-04-22 03:22:00,43.3,34.3,30.18,SSW,202,0.0,6.9,70,0.00,,,0.00,WUHU21623XXSP,2013-04-22 08:22:00,
2013-04-22 03:27:00,43.3,34.3,30.17,East,90,4.5,7.4,70,0.00,,,0.00,WUHU21623XXSP,2013-04-22 08:27:00,
2013-04-22 03:32:00,43.3,34.3,30.17,SSW,202,6.0,7.4,70,0.00,,,0.00,WUHU21623XXSP,2013-04-22 08:32:00,
2013-04-22 03:37:00,43.3,34.3,30.18,South,180,4.9,6.0,70,0.00,,,0.00,WUHU21623XXSP,2013-04-22 08:37:00,
2013-04-22 03:42:00,43.2,34.1,30.18,South,180,0.0,4.9,70,0.00,,,0.00,WUHU21623XXSP,2013-04-22 08:42:00,
2013-04-22 03:47:00,43.2,34.1,30.18,South,180,0.0,4.9,70,0.00,,,0.00,WUHU21623XXSP,2013-04-22 08:47:00,
2013-04-22 03:52:00,43.0,34.0,30.17,SSE,157,4.7,5.1,70,0.00,,,0.00,WUHU21623XXSP,2013-04-22 08:52:00,
2013-04-22 03:57:00,43.0,34.3,30.17,SSW,202,3.4,5.1,71,0.00,,,0.00,WUHU21623XXSP,2013-04-22 08:57:00,
2013-04-22 04:02:00,43.0,34.3,30.17,SSW,202,8.9,8.9,71,0.00,,,0.00,WUHU21623XXSP,2013-04-22 09:02:00,
2013-04-22 04:07:00,43.0,34.3,30.17,SSW,202,6.3,8.9,71,0.00,,,0.00,WUHU21623XXSP,2013-04-22 09:07:00,
2013-04-22 04:12:00,43.0,34.3,30.17,SSW,202,7.2,10.5,71,0.00,,,0.00,WUHU21623XXSP,2013-04-22 09:12:00,
2013-04-22 04:17:00,43.0,34.3,30.16,SSE,157,7.6,10.5,71,0.00,,,0.00,WUHU21623XXSP,2013-04-22 09:17:00,
2013-04-22 04:22:00,43.0,34.3,30.16,ESE,112,3.1,7.6,71,0.00,,,0.00,WUHU21623XXSP,2013-04-22 09:22:00,
2013-04-22 04:27:00,43.0,34.3,30.17,SW,225,7.8,7.8,71,0.00,,,0.00,WUHU21623XXSP,2013-04-22 09:27:00,
2013-04-22 04:32:00,43.0,34.3,30.17,ESE,112,2.9,7.8,71,0.00,,,0.00,WUHU21623XXSP,2013-04-22 09:32:00,
2013-04-22 04:37:00,43.0,34.3,30.17,SSE,157,0.0,4.9,71,0.00,,,0.00,WUHU21623XXSP,2013-04-22 09:37:00,
2013-04-22 04:42:00,43.0,34.3,30.17,SSE,157,2.9,4.9,71,0.00,,,0.00,WUHU21623XXSP,2013-04-22 09:42:00,
2013-04-22 04:47:00,42.8,34.1,30.16,SSW,202,0.0,2.9,71,0.00,,,0.00,WUHU21623XXSP,2013-04-22 09:47:00,
2013-04-22 04:52:00,42.6,34.3,30.16,ESE,112,0.0,4.7,72,0.00,,,0.00,WUHU21623XXSP,2013-04-22 09:52:00,
2013-04-22 04:57:00,42.6,34.3,30.17,SSW,202,8.1,8.1,72,0.00,,,0.00,WUHU21623XXSP,2013-04-22 09:57:00,
2013-04-22 05:02:00,42.6,34.3,30.17,SW,225,6.7,8.1,72,0.00,,,0.00,WUHU21623XXSP,2013-04-22 10:02:00,
2013-04-22 05:07:00,42.6,34.3,30.17,SW,225,0.0,6.7,72,0.00,,,0.00,WUHU21623XXSP,2013-04-22 10:07:00,
2013-04-22 05:12:00,42.8,34.4,30.18,SW,225,1.6,2.9,72,0.00,,,0.00,WUHU21623XXSP,2013-04-22 10:12:00,
2013-04-22 05:17:00,42.6,34.3,30.17,SSW,202,2.5,3.4,72,0.00,,,0.00,WUHU21623XXSP,2013-04-22 10:17:00,
2013-04-22 05:22:00,43.0,34.6,30.16,ESE,112,0.0,3.4,72,0.00,,,0.00,WUHU21623XXSP,2013-04-22 10:22:00,
2013-04-22 05:27:00,43.0,34.6,30.17,SSW,202,4.0,4.0,72,0.00,,,0.00,WUHU21623XXSP,2013-04-22 10:27:00,
2013-04-22 05:32:00,43.0,34.6,30.17,South,180,4.5,4.5,72,0.00,,,0.00,WUHU21623XXSP,2013-04-22 10:32:00,
2013-04-22 05:37:00,43.0,34.6,30.17,South,180,0.0,4.5,72,0.00,,,0.00,WUHU21623XXSP,2013-04-22 10:37:00,
2013-04-22 05:42:00,43.0,34.6,30.16,SSW,202,3.6,3.6,72,0.00,,,0.00,WUHU21623XXSP,2013-04-22 10:42:00,
2013-04-22 05:47:00,43.0,34.6,30.16,ESE,112,0.0,3.6,72,0.00,,,0.00,WUHU21623XXSP,2013-04-22 10:47:00,
2013-04-22 05:52:00,42.8,34.8,30.16,East,90,0.0,2.0,73,0.00,,,0.00,WUHU21623XXSP,2013-04-22 10:52:00,
2013-04-22 05:57:00,42.6,34.6,30.16,ESE,112,0.0,2.0,73,0.00,,,0.00,WUHU21623XXSP,2013-04-22 10:57:00,
2013-04-22 06:02:00,42.6,34.6,30.16,SSE,157,2.2,2.2,73,0.00,,,0.00,WUHU21623XXSP,2013-04-22 11:02:00,
2013-04-22 06:07:00,42.6,34.9,30.16,SSW,202,0.0,2.2,74,0.00,,,0.00,WUHU21623XXSP,2013-04-22 11:07:00,
2013-04-22 06:12:00,42.6,34.9,30.16,SE,135,0.0,0.7,74,0.00,,,0.00,WUHU21623XXSP,2013-04-22 11:12:00,
2013-04-22 06:17:00,42.6,34.9,30.16,SSW,202,0.0,0.0,74,0.00,,,0.00,WUHU21623XXSP,2013-04-22 11:17:00,
2013-04-22 06:22:00,42.6,34.9,30.16,SSW,202,0.0,0.0,74,0.00,,,0.00,WUHU21623XXSP,2013-04-22 11:22:00,
2013-04-22 06:27:00,42.6,34.9,30.16,SSE,157,0.0,0.0,74,0.00,,,0.00,WUHU21623XXSP,2013-04-22 11:27:00,
2013-04-22 06:32:00,42.8,35.1,30.16,SSE,157,4.9,6.3,74,0.00,,,0.00,WUHU21623XXSP,2013-04-22 11:32:00,
2013-04-22 06:37:00,43.0,34.9,30.16,SSE,157,1.6,6.3,73,0.00,,,0.00,WUHU21623XXSP,2013-04-22 11:37:00,
2013-04-22 06:42:00,43.0,34.9,30.16,SSE,157,2.9,4.5,73,0.00,,,0.00,WUHU21623XXSP,2013-04-22 11:42:00,
2013-04-22 06:47:00,43.0,34.9,30.16,SSW,202,0.0,4.5,73,0.00,,,0.00,WUHU21623XXSP,2013-04-22 11:47:00,
2013-04-22 06:52:00,43.2,35.1,30.16,South,180,0.0,4.3,73,0.00,,,0.00,WUHU21623XXSP,2013-04-22 11:52:00,
2013-04-22 06:57:00,43.2,35.1,30.16,South,180,1.8,4.3,73,0.00,,,0.00,WUHU21623XXSP,2013-04-22 11:57:00,
2013-04-22 07:02:00,43.3,34.9,30.16,SSE,157,0.0,2.2,72,0.00,,,0.00,WUHU21623XXSP,2013-04-22 12:02:00,
2013-04-22 07:07:00,43.3,34.9,30.16,South,180,0.0,3.1,72,0.00,,,0.00,WUHU21623XXSP,2013-04-22 12:07:00,
2013-04-22 07:11:00,43.7,35.3,30.16,SSE,157,0.7,3.1,72,0.00,,,0.00,WUHU21623XXSP,2013-04-22 12:11:00,
2013-04-22 07:16:00,43.9,35.4,30.16,ESE,112,1.8,2.9,72,0.00,,,0.00,WUHU21623XXSP,2013-04-22 12:16:00,
2013-04-22 07:21:00,44.4,35.4,30.16,SSE,157,2.9,3.8,71,0.00,,,0.00,WUHU21623XXSP,2013-04-22 12:21:00,
2013-04-22 07:26:00,45.0,36.1,30.16,SE,135,0.0,3.8,71,0.00,,,0.00,WUHU21623XXSP,2013-04-22 12:26:00,
2013-04-22 07:31:00,45.7,36.1,30.16,ESE,112,2.0,3.1,69,0.00,,,0.00,WUHU21623XXSP,2013-04-22 12:31:00,
2013-04-22 07:36:00,45.7,36.1,30.16,South,180,0.0,3.1,69,0.00,,,0.00,WUHU21623XXSP,2013-04-22 12:36:00,
2013-04-22 07:41:00,45.9,36.3,30.16,SE,135,0.0,1.8,69,0.00,,,0.00,WUHU21623XXSP,2013-04-22 12:41:00,
2013-04-22 07:46:00,45.7,35.7,30.16,South,180,2.5,6.9,68,0.00,,,0.00,WUHU21623XXSP,2013-04-22 12:46:00,
2013-04-22 07:51:00,45.7,35.7,30.16,SSW,202,0.0,6.9,68,0.00,,,0.00,WUHU21623XXSP,2013-04-22 12:51:00,
2013-04-22 07:56:00,46.0,35.7,30.16,ESE,112,3.8,3.8,68,0.00,,,0.00,WUHU21623XXSP,2013-04-22 12:56:00,
2013-04-22 08:01:00,46.2,36.6,30.16,South,180,0.0,3.8,69,0.00,,,0.00,WUHU21623XXSP,2013-04-22 13:01:00,
2013-04-22 08:06:00,46.8,36.8,30.16,South,180,2.0,2.2,68,0.00,,,0.00,WUHU21623XXSP,2013-04-22 13:06:00,
2013-04-22 08:11:00,47.1,36.3,30.16,SSW,202,9.4,9.4,66,0.00,,,0.00,WUHU21623XXSP,2013-04-22 13:11:00,
2013-04-22 08:16:00,47.5,36.6,30.16,WSW,247,5.4,9.4,66,0.00,,,0.00,WUHU21623XXSP,2013-04-22 13:16:00,
2013-04-22 08:21:00,48.0,36.8,30.16,SSW,202,4.9,5.4,65,0.00,,,0.00,WUHU21623XXSP,2013-04-22 13:21:00,
2013-04-22 08:26:00,49.1,37.4,30.15,SSE,157,2.5,4.9,64,0.00,,,0.00,WUHU21623XXSP,2013-04-22 13:26:00,
2013-04-22 08:31:00,49.8,37.7,30.14,SSW,202,6.7,6.7,63,0.00,,,0.00,WUHU21623XXSP,2013-04-22 13:31:00,
2013-04-22 08:36:00,50.5,37.6,30.15,South,180,5.1,6.7,61,0.00,,,0.00,WUHU21623XXSP,2013-04-22 13:36:00,
2013-04-22 08:41:00,50.4,37.0,30.14,South,180,6.3,6.7,60,0.00,,,0.00,WUHU21623XXSP,2013-04-22 13:41:00,
2013-04-22 08:46:00,50.4,37.4,30.15,SSW,202,8.1,8.1,61,0.00,,,0.00,WUHU21623XXSP,2013-04-22 13:46:00,
2013-04-22 08:51:00,50.5,37.6,30.15,South,180,5.6,8.3,61,0.00,,,0.00,WUHU21623XXSP,2013-04-22 13:51:00,
2013-04-22 08:56:00,50.7,37.3,30.14,SSW,202,8.3,8.3,60,0.00,,,0.00,WUHU21623XXSP,2013-04-22 13:56:00,
2013-04-22 09:01:00,50.5,37.2,30.14,SSE,157,3.8,8.3,60,0.00,,,0.00,WUHU21623XXSP,2013-04-22 14:01:00,
2013-04-22 09:06:00,50.7,37.3,30.14,SSW,202,7.8,8.1,60,0.00,,,0.00,WUHU21623XXSP,2013-04-22 14:06:00,
2013-04-22 09:11:00,50.7,37.3,30.14,SSW,202,7.2,7.8,60,0.00,,,0.00,WUHU21623XXSP,2013-04-22 14:11:00,
2013-04-22 09:16:00,50.9,37.0,30.14,SW,225,5.6,7.2,59,0.00,,,0.00,WUHU21623XXSP,2013-04-22 14:16:00,
2013-04-22 09:21:00,51.4,37.5,30.14,SW,225,3.4,7.2,59,0.00,,,0.00,WUHU21623XXSP,2013-04-22 14:21:00,
2013-04-22 09:26:00,51.8,37.4,30.14,South,180,4.3,8.3,58,0.00,,,0.00,WUHU21623XXSP,2013-04-22 14:26:00,
2013-04-22 09:31:00,51.8,37.4,30.14,SW,225,4.3,9.4,58,0.00,,,0.00,WUHU21623XXSP,2013-04-22 14:31:00,
2013-04-22 09:36:00,52.7,37.8,30.14,South,180,3.4,9.4,57,0.00,,,0.00,WUHU21623XXSP,2013-04-22 14:36:00,
2013-04-22 09:41:00,52.9,38.0,30.14,SSW,202,5.8,5.8,57,0.00,,,0.00,WUHU21623XXSP,2013-04-22 14:41:00,
2013-04-22 09:46:00,53.2,38.3,30.14,SSW,202,3.1,5.8,57,0.00,,,0.00,WUHU21623XXSP,2013-04-22 14:46:00,
2013-04-22 09:51:00,54.1,38.7,30.14,SSW,202,6.9,6.9,56,0.00,,,0.00,WUHU21623XXSP,2013-04-22 14:51:00,
2013-04-22 09:56:00,54.5,39.0,30.14,WSW,247,4.3,6.9,56,0.00,,,0.00,WUHU21623XXSP,2013-04-22 14:56:00,
2013-04-22 10:01:00,54.9,38.9,30.14,South,180,6.9,10.3,55,0.00,,,0.00,WUHU21623XXSP,2013-04-22 15:01:00,
2013-04-22 10:06:00,55.0,38.6,30.14,South,180,3.8,10.3,54,0.00,,,0.00,WUHU21623XXSP,2013-04-22 15:06:00,
2013-04-22 10:11:00,55.6,39.1,30.14,SW,225,6.0,7.8,54,0.00,,,0.00,WUHU21623XXSP,2013-04-22 15:11:00,
2013-04-22 10:16:00,55.8,38.8,30.14,South,180,6.3,6.3,53,0.00,,,0.00,WUHU21623XXSP,2013-04-22 15:16:00,
2013-04-22 10:21:00,56.3,39.3,30.14,South,180,5.1,11.2,53,0.00,,,0.00,WUHU21623XXSP,2013-04-22 15:21:00,
2013-04-22 10:26:00,56.3,38.9,30.14,SSW,202,6.3,11.2,52,0.00,,,0.00,WUHU21623XXSP,2013-04-22 15:26:00,
2013-04-22 10:31:00,56.7,39.2,30.14,SSE,157,8.1,8.1,52,0.00,,,0.00,WUHU21623XXSP,2013-04-22 15:31:00,
2013-04-22 10:36:00,57.0,39.6,30.14,WSW,247,10.1,11.9,52,0.00,,,0.00,WUHU21623XXSP,2013-04-22 15:36:00,
2013-04-22 10:41:00,57.0,39.1,30.14,SSW,202,10.7,14.1,51,0.00,,,0.00,WUHU21623XXSP,2013-04-22 15:41:00,
2013-04-22 10:46:00,57.0,39.6,30.14,SSW,202,3.8,14.1,52,0.00,,,0.00,WUHU21623XXSP,2013-04-22 15:46:00,
2013-04-22 10:51:00,56.3,38.9,30.14,SSW,202,8.7,10.7,52,0.00,,,0.00,WUHU21623XXSP,2013-04-22 15:51:00,
2013-04-22 10:56:00,56.1,38.7,30.14,SSE,157,3.1,10.7,52,0.00,,,0.00,WUHU21623XXSP,2013-04-22 15:56:00,
2013-04-22 11:01:00,56.3,39.3,30.14,SSE,157,2.9,8.5,53,0.00,,,0.00,WUHU21623XXSP,2013-04-22 16:01:00,
2013-04-22 11:06:00,56.8,39.9,30.14,SW,225,0.0,6.0,53,0.00,,,0.00,WUHU21623XXSP,2013-04-22 16:06:00,
2013-04-22 11:11:00,57.4,40.4,30.14,SW,225,8.7,8.7,53,0.00,,,0.00,WUHU21623XXSP,2013-04-22 16:11:00,
2013-04-22 11:16:00,57.9,40.4,30.14,SSW,202,5.1,8.7,52,0.00,,,0.00,WUHU21623XXSP,2013-04-22 16:16:00,
2013-04-22 11:22:00,58.1,40.7,30.14,South,180,5.6,6.3,51,0.00,,,0.00,WUHU21623XXSP,2013-04-22 16:22:00,
2013-04-22 11:27:00,57.9,40.0,30.14,South,180,8.1,8.1,52,0.00,,,0.00,WUHU21623XXSP,2013-04-22 16:27:00,
2013-04-22 11:32:00,57.6,39.6,30.14,SSW,202,12.5,12.5,51,0.00,,,0.00,WUHU21623XXSP,2013-04-22 16:32:00,
2013-04-22 11:37:00,57.9,40.0,30.14,WSW,247,7.4,12.5,51,0.00,,,0.00,WUHU21623XXSP,2013-04-22 16:37:00,
2013-04-22 11:42:00,58.1,40.6,30.13,South,180,2.5,12.5,52,0.00,,,0.00,WUHU21623XXSP,2013-04-22 16:42:00,
2013-04-22 11:47:00,58.8,41.2,30.13,SW,225,6.7,7.4,52,0.00,,,0.00,WUHU21623XXSP,2013-04-22 16:47:00,
2013-04-22 11:52:00,59.4,40.8,30.13,SSW,202,4.3,9.2,50,0.00,,,0.00,WUHU21623XXSP,2013-04-22 16:52:00,
2013-04-22 11:57:00,59.4,40.8,30.13,SW,225,4.0,9.8,50,0.00,,,0.00,WUHU21623XXSP,2013-04-22 16:57:00,
2013-04-22 12:02:00,59.2,40.6,30.12,SSE,157,4.5,9.8,50,0.00,,,0.00,WUHU21623XXSP,2013-04-22 17:02:00,
2013-04-22 12:07:00,60.1,40.5,30.13,SW,225,11.6,11.6,49,0.00,,,0.00,WUHU21623XXSP,2013-04-22 17:07:00,
2013-04-22 12:12:00,60.6,41.3,30.12,SW,225,6.3,11.6,49,0.00,,,0.00,WUHU21623XXSP,2013-04-22 17:12:00,
2013-04-22 12:17:00,60.6,40.8,30.12,SSW,202,15.2,15.2,48,0.00,,,0.00,WUHU21623XXSP,2013-04-22 17:17:00,
2013-04-22 12:22:00,61.2,41.8,30.11,SW,225,11.2,15.2,49,0.00,,,0.00,WUHU21623XXSP,2013-04-22 17:22:00,
2013-04-22 12:27:00,61.2,40.1,30.11,SW,225,15.0,15.0,46,0.00,,,0.00,WUHU21623XXSP,2013-04-22 17:27:00,
2013-04-22 12:32:00,61.0,40.5,30.11,SW,225,9.2,15.0,47,0.00,,,0.00,WUHU21623XXSP,2013-04-22 17:32:00,
2013-04-22 12:37:00,61.5,41.6,30.11,SW,225,7.8,9.2,48,0.00,,,0.00,WUHU21623XXSP,2013-04-22 17:37:00,
2013-04-22 12:42:00,61.5,41.0,30.11,SSW,202,5.1,7.8,47,0.00,,,0.00,WUHU21623XXSP,2013-04-22 17:42:00,
2013-04-22 12:47:00,62.1,41.5,30.11,SSW,202,4.5,8.5,47,0.00,,,0.00,WUHU21623XXSP,2013-04-22 17:47:00,
2013-04-22 12:52:00,61.9,40.7,30.11,WSW,247,10.3,10.3,46,0.00,,,0.00,WUHU21623XXSP,2013-04-22 17:52:00,
2013-04-22 12:57:00,62.8,41.6,30.10,SE,135,0.0,10.3,46,0.00,,,0.00,WUHU21623XXSP,2013-04-22 17:57:00,
2013-04-22 13:02:00,64.0,42.1,30.10,SSW,202,4.3,9.8,45,0.00,,,0.00,WUHU21623XXSP,2013-04-22 18:02:00,
2013-04-22 13:07:00,64.9,42.4,30.10,SSW,202,8.9,10.7,45,0.00,,,0.00,WUHU21623XXSP,2013-04-22 18:07:00,
2013-04-22 13:12:00,65.5,42.9,30.09,SW,225,0.0,10.7,44,0.00,,,0.00,WUHU21623XXSP,2013-04-22 18:12:00,
2013-04-22 13:17:00,65.1,42.5,30.09,South,180,12.1,12.1,44,0.00,,,0.00,WUHU21623XXSP,2013-04-22 18:17:00,
2013-04-22 13:22:00,64.6,42.0,30.09,East,90,4.0,12.1,44,0.00,,,0.00,WUHU21623XXSP,2013-04-22 18:22:00,
2013-04-22 13:27:00,64.2,42.3,30.09,SSE,157,4.9,12.1,45,0.00,,,0.00,WUHU21623XXSP,2013-04-22 18:27:00,
2013-04-22 13:32:00,64.8,42.8,30.08,SSW,202,4.5,6.0,45,0.00,,,0.00,WUHU21623XXSP,2013-04-22 18:32:00,
2013-04-22 13:37:00,66.6,43.9,30.08,SE,135,5.6,6.0,44,0.00,,,0.00,WUHU21623XXSP,2013-04-22 18:37:00,
2013-04-22 13:42:00,66.0,41.6,30.08,SSW,202,5.6,11.6,41,0.00,,,0.00,WUHU21623XXSP,2013-04-22 18:42:00,
2013-04-22 13:47:00,65.1,41.4,30.07,South,180,4.5,11.6,42,0.00,,,0.00,WUHU21623XXSP,2013-04-22 18:47:00,
2013-04-22 13:52:00,64.8,41.0,30.08,SE,135,2.5,8.1,42,0.00,,,0.00,WUHU21623XXSP,2013-04-22 18:52:00,
2013-04-22 13:57:00,64.9,42.4,30.07,WSW,247,10.7,10.7,44,0.00,,,0.00,WUHU21623XXSP,2013-04-22 18:57:00,
2013-04-22 14:02:00,64.9,41.2,30.07,West,270,2.2,15.9,42,0.00,,,0.00,WUHU21623XXSP,2013-04-22 19:02:00,
2013-04-22 14:07:00,66.0,43.4,30.06,SW,225,9.2,15.9,44,0.00,,,0.00,WUHU21623XXSP,2013-04-22 19:07:00,
2013-04-22 14:12:00,66.0,43.4,30.06,South,180,10.7,10.7,44,0.00,,,0.00,WUHU21623XXSP,2013-04-22 19:12:00,
2013-04-22 14:17:00,65.5,42.3,30.06,SSW,202,6.3,10.7,43,0.00,,,0.00,WUHU21623XXSP,2013-04-22 19:17:00,
2013-04-22 14:22:00,66.6,44.5,30.05,SE,135,10.3,10.3,45,0.00,,,0.00,WUHU21623XXSP,2013-04-22 19:22:00,
2013-04-22 14:27:00,66.4,42.5,30.06,SSE,157,6.5,10.3,42,0.00,,,0.00,WUHU21623XXSP,2013-04-22 19:27:00,
2013-04-22 14:32:00,66.2,43.0,30.05,SW,225,4.3,9.2,44,0.00,,,0.00,WUHU21623XXSP,2013-04-22 19:32:00,
2013-04-22 14:37:00,66.0,43.4,30.04,SSW,202,3.8,8.3,44,0.00,,,0.00,WUHU21623XXSP,2013-04-22 19:37:00,
2013-04-22 14:42:00,66.0,43.4,30.03,SE,135,15.0,15.0,44,0.00,,,0.00,WUHU21623XXSP,2013-04-22 19:42:00,
2013-04-22 14:47:00,66.0,43.4,30.03,WSW,247,3.8,15.0,44,0.00,,,0.00,WUHU21623XXSP,2013-04-22 19:47:00,
2013-04-22 14:52:00,66.4,43.1,30.03,SW,225,8.1,15.0,43,0.00,,,0.00,WUHU21623XXSP,2013-04-22 19:52:00,
2013-04-22 14:57:00,66.9,44.2,30.03,SW,225,11.0,15.2,44,0.00,,,0.00,WUHU21623XXSP,2013-04-22 19:57:00,
2013-04-22 15:02:00,67.1,43.2,30.03,SE,135,6.0,15.2,42,0.00,,,0.00,WUHU21623XXSP,2013-04-22 20:02:00,
2013-04-22 15:07:00,66.9,43.0,30.03,SSW,202,6.0,6.0,42,0.00,,,0.00,WUHU21623XXSP,2013-04-22 20:07:00,
2013-04-22 15:12:00,66.7,42.9,30.03,South,180,7.2,7.2,42,0.00,,,0.00,WUHU21623XXSP,2013-04-22 20:12:00,
2013-04-22 15:17:00,66.0,42.8,30.03,South,180,5.1,7.4,43,0.00,,,0.00,WUHU21623XXSP,2013-04-22 20:17:00,
2013-04-22 15:22:00,66.2,43.4,30.03,SSE,157,1.6,7.4,43,0.00,,,0.00,WUHU21623XXSP,2013-04-22 20:22:00,
2013-04-22 15:27:00,66.7,43.4,30.03,ESE,112,5.8,5.8,43,0.00,,,0.00,WUHU21623XXSP,2013-04-22 20:27:00,
2013-04-22 15:32:00,67.8,43.2,30.02,SSE,157,3.8,5.8,41,0.00,,,0.00,WUHU21623XXSP,2013-04-22 20:32:00,
2013-04-22 15:37:00,66.4,41.3,30.02,SSW,202,16.8,16.8,40,0.00,,,0.00,WUHU21623XXSP,2013-04-22 20:37:00,
2013-04-22 15:42:00,65.5,41.1,30.02,SSW,202,9.6,16.8,41,0.00,,,0.00,WUHU21623XXSP,2013-04-22 20:42:00,
2013-04-22 15:47:00,65.5,41.1,30.02,South,180,4.7,9.6,42,0.00,,,0.00,WUHU21623XXSP,2013-04-22 20:47:00,
2013-04-22 15:52:00,66.0,41.6,30.01,SSW,202,9.4,13.0,41,0.00,,,0.00,WUHU21623XXSP,2013-04-22 20:52:00,
2013-04-22 15:57:00,65.7,40.7,30.01,SW,225,5.8,13.0,40,0.00,,,0.00,WUHU21623XXSP,2013-04-22 20:57:00,
2013-04-22 16:02:00,65.5,41.1,30.01,South,180,4.9,9.4,41,0.00,,,0.00,WUHU21623XXSP,2013-04-22 21:02:00,
2013-04-22 16:07:00,65.1,40.8,30.01,SSE,157,4.9,7.2,41,0.00,,,0.00,WUHU21623XXSP,2013-04-22 21:07:00,
2013-04-22 16:12:00,65.3,40.9,30.00,SSW,202,1.6,7.2,41,0.00,,,0.00,WUHU21623XXSP,2013-04-22 21:12:00,
2013-04-22 16:17:00,65.7,40.7,30.00,SSW,202,12.8,12.8,40,0.00,,,0.00,WUHU21623XXSP,2013-04-22 21:17:00,
2013-04-22 16:22:00,65.8,40.9,30.00,SW,225,1.1,12.8,40,0.00,,,0.00,WUHU21623XXSP,2013-04-22 21:22:00,
2013-04-22 16:27:00,66.2,40.5,30.00,SE,135,5.1,12.5,39,0.00,,,0.00,WUHU21623XXSP,2013-04-22 21:27:00,
2013-04-22 16:32:00,66.6,41.5,30.00,SSE,157,3.8,11.9,40,0.00,,,0.00,WUHU21623XXSP,2013-04-22 21:32:00,
2013-04-22 16:37:00,65.8,40.1,30.00,South,180,3.4,6.9,39,0.00,,,0.00,WUHU21623XXSP,2013-04-22 21:37:00,
2013-04-22 16:42:00,65.5,40.5,30.00,SSW,202,3.4,3.8,40,0.00,,,0.00,WUHU21623XXSP,2013-04-22 21:42:00,
2013-04-22 16:47:00,65.1,40.2,29.99,South,180,6.5,7.6,40,0.00,,,0.00,WUHU21623XXSP,2013-04-22 21:47:00,
2013-04-22 16:52:00,65.3,40.4,29.99,SSE,157,7.4,7.6,40,0.00,,,0.00,WUHU21623XXSP,2013-04-22 21:52:00,
2013-04-22 16:57:00,66.0,40.3,29.98,WSW,247,4.0,7.4,39,0.00,,,0.00,WUHU21623XXSP,2013-04-22 21:57:00,
2013-04-22 17:02:00,66.6,40.8,29.98,WSW,247,4.0,7.4,40,0.00,,,0.00,WUHU21623XXSP,2013-04-22 22:02:00,
2013-04-22 17:07:00,67.3,42.9,29.98,ENE,67,3.6,4.0,40,0.00,,,0.00,WUHU21623XXSP,2013-04-22 22:07:00,
2013-04-22 17:12:00,67.1,42.6,29.98,SSW,202,8.3,8.3,41,0.00,,,0.00,WUHU21623XXSP,2013-04-22 22:12:00,
2013-04-22 17:17:00,66.9,41.8,29.98,SE,135,0.0,8.3,40,0.00,,,0.00,WUHU21623XXSP,2013-04-22 22:17:00,
2013-04-22 17:22:00,66.7,41.7,29.98,SSW,202,3.6,4.5,40,0.00,,,0.00,WUHU21623XXSP,2013-04-22 22:22:00,
2013-04-22 17:27:00,66.0,41.8,29.98,SSW,202,3.6,3.6,41,0.00,,,0.00,WUHU21623XXSP,2013-04-22 22:27:00,
2013-04-22 17:32:00,64.9,41.2,29.98,SE,135,8.5,8.7,42,0.00,,,0.00,WUHU21623XXSP,2013-04-22 22:32:00,
2013-04-22 17:37:00,64.2,41.1,29.98,SSE,157,6.5,8.7,43,0.00,,,0.00,WUHU21623XXSP,2013-04-22 22:37:00,
2013-04-22 17:42:00,64.2,41.1,29.98,South,180,4.7,6.5,43,0.00,,,0.00,WUHU21623XXSP,2013-04-22 22:42:00,
2013-04-22 17:47:00,64.0,41.0,29.98,South,180,10.5,10.5,43,0.00,,,0.00,WUHU21623XXSP,2013-04-22 22:47:00,
2013-04-22 17:52:00,64.0,40.8,29.97,SSW,202,5.6,10.5,43,0.00,,,0.00,WUHU21623XXSP,2013-04-22 22:52:00,
2013-04-22 17:57:00,63.7,40.1,29.98,SSW,202,4.9,6.0,42,0.00,,,0.00,WUHU21623XXSP,2013-04-22 22:57:00,
2013-04-22 18:02:00,63.7,40.6,29.97,East,90,4.5,6.0,43,0.00,,,0.00,WUHU21623XXSP,2013-04-22 23:02:00,
2013-04-22 18:07:00,63.7,41.2,29.97,SSW,202,6.3,6.3,44,0.00,,,0.00,WUHU21623XXSP,2013-04-22 23:07:00,
2013-04-22 18:12:00,63.5,41.1,29.97,SE,135,2.5,6.3,44,0.00,,,0.00,WUHU21623XXSP,2013-04-22 23:12:00,
2013-04-22 18:17:00,63.3,40.9,29.97,SSE,157,6.9,8.7,44,0.00,,,0.00,WUHU21623XXSP,2013-04-22 23:17:00,
2013-04-22 18:22:00,63.1,40.7,29.97,ESE,112,5.6,8.7,44,0.00,,,0.00,WUHU21623XXSP,2013-04-22 23:22:00,
2013-04-22 18:27:00,63.1,40.7,29.96,ESE,112,0.0,6.9,44,0.00,,,0.00,WUHU21623XXSP,2013-04-22 23:27:00,
2013-04-22 18:32:00,62.6,40.8,29.96,South,180,4.0,7.6,45,0.00,,,0.00,WUHU21623XXSP,2013-04-22 23:32:00,
2013-04-22 18:37:00,62.4,40.7,29.96,SSW,202,7.2,10.1,45,0.00,,,0.00,WUHU21623XXSP,2013-04-22 23:37:00,
2013-04-22 18:42:00,62.4,40.7,29.96,ESE,112,0.0,10.1,45,0.00,,,0.00,WUHU21623XXSP,2013-04-22 23:42:00,
2013-04-22 18:47:00,61.9,40.2,29.96,ESE,112,0.0,3.8,45,0.00,,,0.00,WUHU21623XXSP,2013-04-22 23:47:00,
2013-04-22 18:52:00,61.7,40.0,29.96,SE,135,0.0,3.8,46,0.00,,,0.00,WUHU21623XXSP,2013-04-22 23:52:00,
2013-04-22 18:57:00,61.5,40.4,29.96,ESE,112,2.9,2.9,46,0.00,,,0.00,WUHU21623XXSP,2013-04-22 23:57:00,
2013-04-22 19:02:00,61.3,40.3,29.96,South,180,5.4,5.4,46,0.00,,,0.00,WUHU21623XXSP,2013-04-23 00:02:00,
2013-04-22 19:07:00,61.0,40.5,29.96,South,180,0.0,5.4,47,0.00,,,0.00,WUHU21623XXSP,2013-04-23 00:07:00,
2013-04-22 19:12:00,60.6,40.2,29.96,South,180,0.0,2.0,47,0.00,,,0.00,WUHU21623XXSP,2013-04-23 00:12:00,
2013-04-22 19:17:00,60.4,40.6,29.96,ESE,112,4.3,4.3,48,0.00,,,0.00,WUHU21623XXSP,2013-04-23 00:17:00,
2013-04-22 19:22:00,60.4,40.6,29.96,SSE,157,2.0,4.3,48,0.00,,,0.00,WUHU21623XXSP,2013-04-23 00:22:00,
2013-04-22 19:27:00,60.3,40.6,29.96,SSW,202,7.4,7.4,49,0.00,,,0.00,WUHU21623XXSP,2013-04-23 00:27:00,
2013-04-22 19:32:00,60.1,40.9,29.96,SE,135,0.0,7.4,49,0.00,,,0.00,WUHU21623XXSP,2013-04-23 00:32:00,
2013-04-22 19:37:00,59.7,40.7,29.96,SE,135,0.0,7.4,49,0.00,,,0.00,WUHU21623XXSP,2013-04-23 00:37:00,
2013-04-22 19:42:00,59.5,40.9,29.96,SW,225,0.0,0.0,50,0.00,,,0.00,WUHU21623XXSP,2013-04-23 00:42:00,
2013-04-22 19:47:00,59.2,40.6,29.96,SSE,157,2.0,4.5,50,0.00,,,0.00,WUHU21623XXSP,2013-04-23 00:47:00,
2013-04-22 19:52:00,59.0,40.9,29.96,SW,225,0.0,4.5,51,0.00,,,0.00,WUHU21623XXSP,2013-04-23 00:52:00,
2013-04-22 19:57:00,58.8,40.8,29.96,SSW,202,0.0,6.0,51,0.00,,,0.00,WUHU21623XXSP,2013-04-23 00:57:00,
2013-04-22 20:02:00,58.8,40.8,29.96,ESE,112,0.0,6.0,51,0.00,,,0.00,WUHU21623XXSP,2013-04-23 01:02:00,
2013-04-22 20:07:00,58.8,40.8,29.96,SSE,157,6.0,6.0,51,0.00,,,0.00,WUHU21623XXSP,2013-04-23 01:07:00,
2013-04-22 20:12:00,58.6,40.6,29.96,SSW,202,0.0,6.0,51,0.00,,,0.00,WUHU21623XXSP,2013-04-23 01:12:00,
2013-04-22 20:17:00,58.5,40.4,29.96,SE,135,0.0,4.0,51,0.00,,,0.00,WUHU21623XXSP,2013-04-23 01:17:00,
2013-04-22 20:22:00,58.3,40.3,29.96,SSW,202,1.8,4.0,51,0.00,,,0.00,WUHU21623XXSP,2013-04-23 01:22:00,
2013-04-22 20:27:00,58.1,40.1,29.96,SSW,202,0.0,3.1,51,0.00,,,0.00,WUHU21623XXSP,2013-04-23 01:27:00,
2013-04-22 20:32:00,57.9,40.4,29.96,SE,135,1.1,3.1,52,0.00,,,0.00,WUHU21623XXSP,2013-04-23 01:32:00,
2013-04-22 20:37:00,57.7,40.3,29.96,South,180,0.0,1.1,52,0.00,,,0.00,WUHU21623XXSP,2013-04-23 01:37:00,
2013-04-22 20:42:00,57.6,40.1,29.96,SE,135,0.0,0.0,52,0.00,,,0.00,WUHU21623XXSP,2013-04-23 01:42:00,
2013-04-22 20:47:00,57.4,40.4,29.96,SSW,202,6.0,6.0,53,0.00,,,0.00,WUHU21623XXSP,2013-04-23 01:47:00,
2013-04-22 20:52:00,57.4,40.4,29.96,SE,135,0.0,6.0,53,0.00,,,0.00,WUHU21623XXSP,2013-04-23 01:52:00,
2013-04-22 20:57:00,57.0,40.1,29.96,SE,135,0.0,3.4,53,0.00,,,0.00,WUHU21623XXSP,2013-04-23 01:57:00,
2013-04-22 21:02:00,57.0,40.5,29.96,East,90,0.0,3.4,54,0.00,,,0.00,WUHU21623XXSP,2013-04-23 02:02:00,
2013-04-22 21:07:00,56.8,40.4,29.96,SSW,202,5.4,5.4,54,0.00,,,0.00,WUHU21623XXSP,2013-04-23 02:07:00,
2013-04-22 21:12:00,56.8,40.4,29.97,SSE,157,2.0,5.4,54,0.00,,,0.00,WUHU21623XXSP,2013-04-23 02:12:00,
2013-04-22 21:17:00,56.5,40.0,29.97,SSW,202,0.0,3.4,54,0.00,,,0.00,WUHU21623XXSP,2013-04-23 02:17:00,
2013-04-22 21:22:00,56.3,39.8,29.97,ESE,112,0.0,1.6,54,0.00,,,0.00,WUHU21623XXSP,2013-04-23 02:22:00,
2013-04-22 21:27:00,56.3,40.3,29.97,SSE,157,0.0,3.8,55,0.00,,,0.00,WUHU21623XXSP,2013-04-23 02:27:00,
2013-04-22 21:32:00,56.1,40.1,29.97,SW,225,0.0,3.8,55,0.00,,,0.00,WUHU21623XXSP,2013-04-23 02:32:00,
2013-04-22 21:37:00,55.9,39.9,29.97,ESE,112,3.8,3.8,55,0.00,,,0.00,WUHU21623XXSP,2013-04-23 02:37:00,
2013-04-22 21:42:00,55.9,40.4,29.97,South,180,1.3,3.8,56,0.00,,,0.00,WUHU21623XXSP,2013-04-23 02:42:00,
2013-04-22 21:47:00,55.8,40.2,29.97,SSE,157,0.0,4.0,56,0.00,,,0.00,WUHU21623XXSP,2013-04-23 02:47:00,
2013-04-22 21:52:00,55.6,40.0,29.97,SSW,202,0.0,4.0,56,0.00,,,0.00,WUHU21623XXSP,2013-04-23 02:52:00,
2013-04-22 21:57:00,55.6,40.5,29.97,SSE,157,1.8,1.8,57,0.00,,,0.00,WUHU21623XXSP,2013-04-23 02:57:00,
2013-04-22 22:02:00,55.2,40.2,29.97,South,180,3.1,3.1,57,0.00,,,0.00,WUHU21623XXSP,2013-04-23 03:02:00,
2013-04-22 22:07:00,55.2,40.6,29.96,SSW,202,2.5,3.1,58,0.00,,,0.00,WUHU21623XXSP,2013-04-23 03:07:00,
2013-04-22 22:12:00,55.2,40.6,29.97,South,180,0.0,2.5,58,0.00,,,0.00,WUHU21623XXSP,2013-04-23 03:12:00,
2013-04-22 22:17:00,55.2,40.6,29.96,SSW,202,1.1,4.0,58,0.00,,,0.00,WUHU21623XXSP,2013-04-23 03:17:00,
2013-04-22 22:22:00,55.2,41.1,29.96,East,90,0.0,4.0,59,0.00,,,0.00,WUHU21623XXSP,2013-04-23 03:22:00,
2013-04-22 22:27:00,55.2,41.1,29.96,South,180,0.0,0.0,59,0.00,,,0.00,WUHU21623XXSP,2013-04-23 03:27:00,
2013-04-22 22:32:00,55.0,40.9,29.96,South,180,2.7,3.6,59,0.00,,,0.00,WUHU21623XXSP,2013-04-23 03:32:00,
2013-04-22 22:37:00,55.2,41.6,29.96,ESE,112,0.0,3.6,60,0.00,,,0.00,WUHU21623XXSP,2013-04-23 03:37:00,
2013-04-22 22:42:00,55.2,41.6,29.96,SSW,202,0.0,3.1,60,0.00,,,0.00,WUHU21623XXSP,2013-04-23 03:42:00,
2013-04-22 22:47:00,55.0,41.4,29.96,SE,135,0.0,0.9,60,0.00,,,0.00,WUHU21623XXSP,2013-04-23 03:47:00,
2013-04-22 22:52:00,55.0,41.4,29.96,South,180,1.6,1.6,60,0.00,,,0.00,WUHU21623XXSP,2013-04-23 03:52:00,
2013-04-22 22:57:00,55.0,41.4,29.96,SSW,202,3.8,3.8,60,0.00,,,0.00,WUHU21623XXSP,2013-04-23 03:57:00,
2013-04-22 23:01:00,55.0,41.4,29.96,SSE,157,1.6,3.8,60,0.00,,,0.00,WUHU21623XXSP,2013-04-23 04:01:00,
2013-04-22 23:06:00,55.0,41.4,29.96,South,180,0.9,3.6,60,0.00,,,0.00,WUHU21623XXSP,2013-04-23 04:06:00,
2013-04-22 23:11:00,55.0,41.4,29.95,SE,135,0.0,3.6,60,0.00,,,0.00,WUHU21623XXSP,2013-04-23 04:11:00,
2013-04-22 23:16:00,55.0,41.4,29.95,South,180,0.0,0.0,60,0.00,,,0.00,WUHU21623XXSP,2013-04-23 04:16:00,
2013-04-22 23:21:00,55.0,41.4,29.95,South,180,3.4,3.4,60,0.00,,,0.00,WUHU21623XXSP,2013-04-23 04:21:00,
2013-04-22 23:26:00,55.2,41.6,29.95,SE,135,0.0,7.6,60,0.00,,,0.00,WUHU21623XXSP,2013-04-23 04:26:00,
2013-04-22 23:31:00,55.6,41.9,29.95,South,180,2.0,8.1,60,0.00,,,0.00,WUHU21623XXSP,2013-04-23 04:31:00,
2013-04-22 23:36:00,55.8,41.6,29.95,South,180,5.4,8.1,59,0.00,,,0.00,WUHU21623XXSP,2013-04-23 04:36:00,
2013-04-22 23:41:00,55.6,41.9,29.96,South,180,6.3,6.3,60,0.00,,,0.00,WUHU21623XXSP,2013-04-23 04:41:00,
2013-04-22 23:46:00,55.6,41.9,29.96,SSE,157,4.9,8.3,60,0.00,,,0.00,WUHU21623XXSP,2013-04-23 04:46:00,
2013-04-22 23:51:00,55.6,41.9,29.95,SSW,202,0.0,8.3,60,0.00,,,0.00,WUHU21623XXSP,2013-04-23 04:51:00,
2013-04-22 23:56:00,55.6,41.9,29.96,SSE,157,2.7,7.4,60,0.00,,,0.00,WUHU21623XXSP,2013-04-23 04:56:00,